Yakima, WA
on Wednesday, January 16, 2013

Wednesday
Previous Day Next Day
Daily Summary
 ActualAverageRecord
Temperature
Mean Temperature °F 31°F  
Max Temperature 28°F 39°F 60°F (2011)
Min Temperature 14°F 23°F -14°F (1950)
Degree Days
Heating Degree Days 44 34  
Month to date heating degree days 555 568  
Since 1 July heating degree days 2769 3231  
Cooling Degree Days 0 0  
Month to date cooling degree days 0 0  
Year to date cooling degree days 0 0  
Moisture
Dew Point 20°F   
Average Humidity 84    
Maximum Humidity 88    
Minimum Humidity 80    
Precipitation
Precipitation 0.00 in 0.03 in 0.67 in (1954)
Month to date precipitation 0.09 0.65  
Year to date precipitation 0.09 0.65  
Snow
Snow 0.00 in 0.20 in 6.90 in (1954)
Month to date snowfall 1.1 3.4  
Year to date snowfall 1.1 3.4  
Since 1 July snowfall 15.3 16.4  
Snow Depth 0.00 in   
Wind
Wind Speed 1 mph   
Max Wind Speed 7 mph   
Max Gust Speed 7 mph   
Visibility 3 miles   
Events     

Key: T is trace of precipitation, MM is missing value
Source: NWS Daily Summary
Time(PST)TemperatureDew PointHumidity Pressure Visibility Wind DirectionWind SpeedGust SpeedPrecipitationEvents Conditions
12:53 AM 17.1°F 12.9°F 84% 30.61 in 5.0 miles Calm Calm - N/A   Clear
1:53 AM 17.1°F 12.0°F 81% 30.61 in 5.0 miles WNW 3.5 mph - N/A   Haze
2:53 AM 17.1°F 12.0°F 81% 30.61 in 4.0 miles West 4.6 mph - N/A   Haze
3:53 AM 16.0°F 12.0°F 84% 30.61 in 4.0 miles WNW 3.5 mph - N/A   Clear
4:53 AM 15.1°F 10.0°F 80% 30.60 in 5.0 miles WSW 4.6 mph - N/A   Haze
5:53 AM 15.1°F 10.9°F 84% 30.60 in 4.0 miles Calm Calm - N/A   Clear
6:53 AM 14.0°F 9.0°F 80% 30.62 in 5.0 miles West 3.5 mph - N/A   Haze
7:43 AM 15.8°F 10.4°F 79% 30.58 in 4.0 miles West 5.8 mph - N/A   Haze
7:53 AM 17.1°F 12.0°F 81% 30.65 in 3.0 miles West 3.5 mph - N/A   Haze
8:07 AM 19.4°F 14.0°F 80% 30.60 in 2.5 miles West 4.6 mph - N/A   Haze
8:36 AM 21.2°F 17.6°F 86% 30.61 in 3.0 miles Calm Calm - N/A   Overcast
8:45 AM 21.2°F 17.6°F 86% 30.61 in 2.5 miles West 3.5 mph - N/A   Haze
8:53 AM 21.9°F 18.0°F 85% 30.66 in 2.5 miles West 3.5 mph - N/A   Overcast
9:53 AM 25.0°F 19.9°F 81% 30.67 in 2.5 miles Calm Calm - N/A   Haze
10:53 AM 26.1°F 21.0°F 81% 30.66 in 2.5 miles Calm Calm - N/A   Haze
11:53 AM 26.6°F 23.0°F 86% 30.59 in 2.0 miles Calm Calm - N/A   Overcast
12:02 PM 26.6°F 23.0°F 86% 30.59 in 1.8 miles Calm Calm - N/A   Overcast
12:44 PM 28.4°F 23.0°F 80% 30.58 in 2.0 miles Calm Calm - N/A   Haze
12:53 PM 28.0°F 24.1°F 85% 30.63 in 2.0 miles Calm Calm - N/A   Overcast
1:53 PM 28.0°F 24.1°F 85% 30.63 in 2.0 miles Calm Calm - N/A   Overcast
2:53 PM 28.0°F 24.1°F 85% 30.63 in 2.0 miles Calm Calm - N/A   Overcast
3:53 PM 28.0°F 24.1°F 85% 30.63 in 2.5 miles WSW 4.6 mph - N/A   Overcast
4:00 PM 28.4°F 24.8°F 86% 30.58 in 2.5 miles SW 3.5 mph - N/A   Overcast
4:53 PM 28.0°F 24.1°F 85% 30.63 in 2.5 miles Calm Calm - N/A   Overcast
5:53 PM 28.0°F 24.1°F 85% 30.63 in 2.5 miles SSW 3.5 mph - N/A   Overcast
6:17 PM 28.4°F 24.8°F 86% 30.57 in 2.5 miles SSW 3.5 mph - N/A   Overcast
6:53 PM 28.0°F 24.1°F 85% 30.63 in 2.5 miles Calm Calm - N/A   Overcast
7:53 PM 28.0°F 24.1°F 85% 30.63 in 2.5 miles Calm Calm - N/A   Overcast
8:53 PM 28.0°F 24.1°F 85% 30.63 in 2.5 miles Calm Calm - N/A   Overcast
9:53 PM 28.0°F 24.1°F 85% 30.63 in 3.0 miles Calm Calm - N/A   Overcast
10:30 PM 28.4°F 24.8°F 86% 30.58 in 2.5 miles Calm Calm - N/A   Overcast
10:39 PM 28.4°F 24.8°F 86% 30.58 in 3.0 miles WNW 3.5 mph - N/A   Overcast
10:53 PM 28.0°F 24.1°F 85% 30.63 in 3.0 miles Calm Calm - N/A   Overcast
11:43 PM 28.4°F 24.8°F 86% 30.59 in 4.0 miles Calm Calm - N/A   Overcast
11:53 PM 28.0°F 24.1°F 85% 30.64 in 4.0 miles Calm Calm - N/A   Overcast
Moon Phase
Jan. 16 Jan. 18 Jan. 26 Feb. 03 Feb. 10
Sunrise:07:41 AM (PST) Moon Rise:09:57 AM (PST)1/16
Sunset:04:43 PM (PST) Moon Set:11:05 PM (PST)1/16

Copyright © 2014 The Weather Underground, Inc.